Hourly Weather Roundup
Issued by NWS Central Illinois

Home | Current Version | Previous Version | Text Only | Print | Product List | Glossary On
Versions: 1 2 3 4 5 6 7 8 9 10 11 12 13 14 15 16 17 18 19 20 21 22 23 24 25 26 27 28 29 30 31 32 33 34 35 36 37 38 39 40 41 42 43 44 45 46 47 48 49 50
000
NZUS43 KILX 040910
HWRILX

AREA WEATHER ROUNDUP
NATIONAL WEATHER SERVICE, LINCOLN IL
300 AM CST SUN DEC 04 2016


CITY           SKY/WX    TMP DP  RH WIND       PRES   REMARKS
BLOOMINGTON    CLOUDY    31  28  89 E7        30.19F WCI  24
CHAMPAIGN      CLOUDY    33  28  81 E7        30.20F WCI  27
DANVILLE       CLOUDY    32  28  86 CALM      30.19F
DECATUR        CLOUDY   N/A N/A N/A E7        30.20F
EFFINGHAM      CLOUDY    36  32  85 NE5       30.20S WCI  32
FLORA          CLOUDY    38  32  78 E6        30.18F WCI  34
GALESBURG      CLOUDY    32  29  88 E8        30.17F WCI  25
JACKSONVILLE   CLOUDY    35  32  88 SE9       30.16F WCI  28
LACON          CLOUDY    32  27  82 SE5       30.20F WCI  27
LAWRENCEVILLE  CLOUDY    37  31  78 E6        30.21F WCI  32
LITCHFIELD     CLOUDY    36  32  86 E7        30.17F WCI  30
$$


CITY           SKY/WX    TMP DP  RH WIND       PRES   REMARKS
LINCOLN        CLOUDY    34  31  87 E7        30.19F WCI  28
MACOMB         CLOUDY    34  32  93 E7        30.19F WCI  28
MATTOON        CLOUDY    34  28  79 E6        30.18F WCI  29
MT CARMEL AP   CLOUDY    37  32  79 E6        30.19F WCI  33
OLNEY-NOBLE AP CLOUDY    36  32  87 E8        30.19F WCI  29
PARIS          CLOUDY    33  31  92 E3        30.22F
PEORIA         CLOUDY    34  28  79 E7        30.20F WCI  28
PONTIAC        CLOUDY    32  32  98 E5        30.22F WCI  28
RANTOUL        CLOUDY    33  31  90 E3        30.21F
SPRINGFIELD    CLOUDY    36  31  82 E6        30.18F WCI  31
TAYLORVILLE    CLOUDY    34  31  88 E6        30.18F WCI  29
$$

...REGIONAL REPORTS...


CITY           SKY/WX    TMP DP  RH WIND       PRES   REMARKS
CHICAGO O`HARE CLOUDY    31  26  82 S3        30.23F
KANKAKEE       CLOUDY    32  28  87 CALM      30.24F
MOLINE         CLOUDY    35  27  72 E9        30.17F WCI  28
MOUNT STERLING CLOUDY    36  32  87 SE7       30.15S WCI  30
MOUNT VERNON   NOT AVBL
PITTSFIELD     LGT RAIN  37  35  90 E3        30.16S
QUINCY         CLOUDY    38  34  85 SE5       30.14S WCI  34
ROCKFORD       CLOUDY    33  27  78 S7        30.23F WCI  27
$$


CITY           SKY/WX    TMP DP  RH WIND       PRES   REMARKS
BURLINGTON     CLOUDY    34  31  88 SE9       30.15F WCI  27
CEDAR RAPIDS   CLOUDY    33  32  96 SE10      30.11F WCI  25
DES MOINES     LGT SNOW  35  34  96 S8        30.06F FOG     WCI  29
KIRKSVILLE     MIX PCPN  37  35  92 SE9       30.12F FOG     WCI  30
OTTUMWA        LGT RAIN  37  33  85 S17       30.10F WCI  27
ST LOUIS       LGT RAIN  41  32  70 E10       30.15F WCI  35
$$


CITY           SKY/WX    TMP DP  RH WIND       PRES   REMARKS
TERRE HAUTE    CLOUDY    34  29  82 E5        30.21F WCI  30
EVANSVILLE     LGT RAIN  39  33  79 E6        30.19F WCI  35
INDIANAPOLIS   CLOUDY    34  27  75 E6        30.22F WCI  29
LAFAYETTE      CLOUDY    32  28  85 E7        30.22F WCI  26
MADISON        LGT SNOW  31  28  89 S6        30.18F FOG     WCI  25
MILWAUKEE      PTCLDY    29  21  72 CALM      30.22S
$$






USA.gov is the U.S. government's official web portal to all federal, state and local government web resources and services.